Location: Buch
(50.1863°N, 11.0141°E)
Time: 11:54:48
(UTC+00:00)

Cosmos 1943 Rocket - Pass Details

Date: 18 January 2020
Orbit: 813 x 842 km, 71.0° (Epoch: 17 February)

Event Time Altitude Azimuth Distance (km) Brightness Sun altitude
Exits shadow 03:45:28 12° 3° (N) 2,278 4.5 -31.7°
Drops below altitude 10° 03:46:13 10° 9° (N) 2,451 4.7 -31.6°
Sets 03:49:26 0° 27° (NNE) 3,381 5.7 -31.1°
